Time,TemperatureF,DewpointF,PressureIn,WindDirection,WindDirectionDegrees,WindSpeedMPH,WindSpeedGustMPH,Humidity,HourlyPrecipIn,Conditions,Clouds,dailyrainin,SolarRadiationWatts/m^2,SoftwareType,DateUTC
2013-07-31 00:01:00,70.1,62.2,30.13,SSE,164,2.0,6.0,76,0.00,,,0.00,0,WeatherCatV1.15B25,2013-07-31 04:01:00,
2013-07-31 00:06:00,70.0,62.4,30.13,SSE,151,1.0,6.0,77,0.00,,,0.00,0,WeatherCatV1.15B25,2013-07-31 04:06:00,
2013-07-31 00:11:00,69.9,62.3,30.13,SSE,159,2.0,6.0,77,0.00,,,0.00,0,WeatherCatV1.15B25,2013-07-31 04:11:00,
2013-07-31 00:16:00,69.8,62.6,30.13,SSE,153,1.0,3.0,78,0.00,,,0.00,0,WeatherCatV1.15B25,2013-07-31 04:16:00,
2013-07-31 00:21:00,69.7,62.5,30.13,South,180,1.0,4.0,78,0.00,,,0.00,0,WeatherCatV1.15B25,2013-07-31 04:21:00,
2013-07-31 00:26:00,69.6,62.4,30.13,South,176,3.0,4.0,78,0.00,,,0.00,0,WeatherCatV1.15B25,2013-07-31 04:26:00,
2013-07-31 00:31:00,69.6,62.8,30.13,SSW,198,1.0,2.0,79,0.00,,,0.00,0,WeatherCatV1.15B25,2013-07-31 04:31:00,
2013-07-31 00:36:00,69.5,62.7,30.13,South,169,2.0,5.0,79,0.00,,,0.00,0,WeatherCatV1.15B25,2013-07-31 04:36:00,
2013-07-31 00:41:00,69.5,62.7,30.13,South,176,2.0,5.0,79,0.00,,,0.00,0,WeatherCatV1.15B25,2013-07-31 04:41:00,
2013-07-31 00:46:00,69.4,63.0,30.13,SSE,154,0.0,6.0,80,0.00,,,0.00,0,WeatherCatV1.15B25,2013-07-31 04:46:00,
2013-07-31 00:51:00,69.4,63.0,30.13,South,188,1.0,4.0,80,0.00,,,0.00,0,WeatherCatV1.15B25,2013-07-31 04:51:00,
2013-07-31 00:56:00,69.4,63.0,30.13,SSE,168,1.0,6.0,80,0.00,,,0.00,0,WeatherCatV1.15B25,2013-07-31 04:56:00,
2013-07-31 01:01:00,69.3,62.9,30.13,South,171,2.0,6.0,80,0.00,,,0.00,0,WeatherCatV1.15B25,2013-07-31 05:01:00,
2013-07-31 01:06:00,69.3,63.2,30.13,South,173,3.0,3.0,81,0.00,,,0.00,0,WeatherCatV1.15B25,2013-07-31 05:06:00,
2013-07-31 01:11:00,69.3,63.2,30.13,SSE,148,1.0,4.0,81,0.00,,,0.00,0,WeatherCatV1.15B25,2013-07-31 05:11:00,
2013-07-31 01:16:00,69.2,63.1,30.13,SSE,160,6.0,7.0,81,0.00,,,0.00,0,WeatherCatV1.15B25,2013-07-31 05:16:00,
2013-07-31 01:21:00,69.2,63.1,30.13,SSE,166,7.0,7.0,81,0.00,,,0.00,0,WeatherCatV1.15B25,2013-07-31 05:21:00,
2013-07-31 01:26:00,69.2,63.1,30.13,South,175,1.0,6.0,81,0.00,,,0.00,0,WeatherCatV1.15B25,2013-07-31 05:26:00,
2013-07-31 01:31:00,69.2,63.5,30.13,SW,217,1.0,2.0,82,0.00,,,0.00,0,WeatherCatV1.15B25,2013-07-31 05:31:00,
2013-07-31 01:36:00,69.2,63.5,30.13,South,179,1.0,3.0,82,0.00,,,0.00,0,WeatherCatV1.15B25,2013-07-31 05:36:00,
2013-07-31 01:41:00,69.2,63.5,30.13,South,182,3.0,3.0,82,0.00,,,0.00,0,WeatherCatV1.15B25,2013-07-31 05:41:00,
2013-07-31 01:46:00,69.2,63.5,30.13,South,182,3.0,7.0,82,0.00,,,0.00,0,WeatherCatV1.15B25,2013-07-31 05:46:00,
2013-07-31 01:51:00,69.3,63.6,30.13,South,173,6.0,6.0,82,0.00,,,0.00,0,WeatherCatV1.15B25,2013-07-31 05:51:00,
2013-07-31 01:56:00,69.4,63.7,30.13,South,177,2.0,5.0,82,0.00,,,0.00,0,WeatherCatV1.15B25,2013-07-31 05:56:00,
2013-07-31 02:01:00,69.4,63.7,30.13,South,185,2.0,2.0,82,0.00,,,0.00,0,WeatherCatV1.15B25,2013-07-31 06:01:00,
2013-07-31 02:06:00,69.4,63.7,30.13,SSE,160,5.0,10.0,82,0.00,,,0.00,0,WeatherCatV1.15B25,2013-07-31 06:06:00,
2013-07-31 02:11:00,69.4,63.3,30.13,South,185,3.0,9.0,81,0.00,,,0.00,0,WeatherCatV1.15B25,2013-07-31 06:11:00,
2013-07-31 02:16:00,69.3,63.2,30.13,SSW,200,1.0,13.0,81,0.00,,,0.00,0,WeatherCatV1.15B25,2013-07-31 06:16:00,
2013-07-31 02:21:00,69.0,63.6,30.13,South,179,1.0,8.0,83,0.00,,,0.00,0,WeatherCatV1.15B25,2013-07-31 06:21:00,
2013-07-31 02:26:00,68.7,63.7,30.13,South,181,2.0,15.0,84,0.00,,,0.00,0,WeatherCatV1.15B25,2013-07-31 06:26:00,
2013-07-31 02:31:00,68.4,63.4,30.13,South,179,3.0,7.0,84,0.00,,,0.00,0,WeatherCatV1.15B25,2013-07-31 06:31:00,
2013-07-31 02:36:00,68.3,63.6,30.13,South,183,1.0,8.0,85,0.00,,,0.00,0,WeatherCatV1.15B25,2013-07-31 06:36:00,
2013-07-31 02:41:00,68.2,63.2,30.13,SW,236,4.0,8.0,84,0.00,,,0.00,0,WeatherCatV1.15B25,2013-07-31 06:41:00,
2013-07-31 02:46:00,68.1,63.1,30.12,SW,221,2.0,11.0,84,0.00,,,0.00,0,WeatherCatV1.15B25,2013-07-31 06:46:00,
2013-07-31 02:51:00,68.0,63.0,30.12,SSE,148,7.0,14.0,84,0.00,,,0.00,0,WeatherCatV1.15B25,2013-07-31 06:51:00,
2013-07-31 02:56:00,68.0,63.3,30.12,South,173,7.0,7.0,85,0.00,,,0.00,0,WeatherCatV1.15B25,2013-07-31 06:56:00,
2013-07-31 03:01:00,67.8,62.8,30.13,SSE,167,6.0,10.0,84,0.00,,,0.00,0,WeatherCatV1.15B25,2013-07-31 07:01:00,
2013-07-31 03:06:00,67.8,63.1,30.12,South,173,5.0,11.0,85,0.00,,,0.00,0,WeatherCatV1.15B25,2013-07-31 07:06:00,
2013-07-31 03:11:00,67.6,62.9,30.12,South,181,3.0,11.0,85,0.00,,,0.00,0,WeatherCatV1.15B25,2013-07-31 07:11:00,
2013-07-31 03:16:00,67.4,62.7,30.12,South,183,8.0,8.0,85,0.00,,,0.00,0,WeatherCatV1.15B25,2013-07-31 07:16:00,
2013-07-31 03:21:00,67.2,62.9,30.12,South,180,1.0,8.0,86,0.00,,,0.00,0,WeatherCatV1.15B25,2013-07-31 07:21:00,
2013-07-31 03:26:00,66.8,62.8,30.12,SSE,164,4.0,8.0,87,0.00,,,0.00,0,WeatherCatV1.15B25,2013-07-31 07:26:00,
2013-07-31 03:31:00,66.4,62.7,30.13,South,173,6.0,9.0,88,0.00,,,0.00,0,WeatherCatV1.15B25,2013-07-31 07:31:00,
2013-07-31 03:36:00,66.1,62.8,30.13,South,172,2.0,6.0,89,0.00,,,0.00,0,WeatherCatV1.15B25,2013-07-31 07:36:00,
2013-07-31 03:41:00,65.9,62.9,30.12,South,175,7.0,7.0,90,0.00,,,0.00,0,WeatherCatV1.15B25,2013-07-31 07:41:00,
2013-07-31 03:46:00,65.7,62.7,30.12,SE,139,5.0,10.0,90,0.00,,,0.01,0,WeatherCatV1.15B25,2013-07-31 07:46:00,
2013-07-31 03:51:00,65.5,62.8,30.12,South,176,2.0,5.0,91,0.00,,,0.01,0,WeatherCatV1.15B25,2013-07-31 07:51:00,
2013-07-31 03:56:00,65.2,62.5,30.12,South,169,7.0,9.0,91,0.00,,,0.01,0,WeatherCatV1.15B25,2013-07-31 07:56:00,
2013-07-31 04:01:00,65.1,62.7,30.12,South,171,6.0,11.0,92,0.00,,,0.01,0,WeatherCatV1.15B25,2013-07-31 08:01:00,
2013-07-31 04:06:00,64.8,62.4,30.11,SSE,154,2.0,9.0,92,0.00,,,0.01,0,WeatherCatV1.15B25,2013-07-31 08:06:00,
2013-07-31 04:11:00,64.6,62.2,30.11,South,176,7.0,7.0,92,0.00,,,0.02,0,WeatherCatV1.15B25,2013-07-31 08:11:00,
2013-07-31 04:16:00,64.4,62.3,30.11,South,175,3.0,4.0,93,0.08,,,0.03,0,WeatherCatV1.15B25,2013-07-31 08:16:00,
2013-07-31 04:21:00,64.3,62.2,30.11,South,184,4.0,8.0,93,0.08,,,0.03,0,WeatherCatV1.15B25,2013-07-31 08:21:00,
2013-07-31 04:26:00,64.2,62.4,30.11,SSW,200,4.0,6.0,94,0.06,,,0.03,0,WeatherCatV1.15B25,2013-07-31 08:26:00,
2013-07-31 04:31:00,64.2,62.4,30.11,South,185,2.0,6.0,94,0.04,,,0.03,0,WeatherCatV1.15B25,2013-07-31 08:31:00,
2013-07-31 04:36:00,64.2,62.4,30.11,SSE,156,1.0,4.0,94,0.00,,,0.03,0,WeatherCatV1.15B25,2013-07-31 08:36:00,
2013-07-31 04:41:00,64.2,62.4,30.11,South,178,0.0,2.0,94,0.00,,,0.03,0,WeatherCatV1.15B25,2013-07-31 08:41:00,
2013-07-31 04:46:00,64.2,62.4,30.11,South,185,2.0,3.0,94,0.00,,,0.03,0,WeatherCatV1.15B25,2013-07-31 08:46:00,
2013-07-31 04:51:00,64.2,62.7,30.11,South,185,0.0,2.0,95,0.00,,,0.03,0,WeatherCatV1.15B25,2013-07-31 08:51:00,
2013-07-31 04:56:00,64.2,62.7,30.11,South,185,0.0,0.0,95,0.00,,,0.03,0,WeatherCatV1.15B25,2013-07-31 08:56:00,
2013-07-31 05:01:00,64.2,62.7,30.11,South,185,0.0,0.0,95,0.00,,,0.03,0,WeatherCatV1.15B25,2013-07-31 09:01:00,
2013-07-31 05:06:00,64.2,62.7,30.10,South,185,1.0,1.0,95,0.00,,,0.04,0,WeatherCatV1.15B25,2013-07-31 09:06:00,
2013-07-31 05:11:00,64.3,62.8,30.11,South,185,1.0,1.0,95,0.00,,,0.04,0,WeatherCatV1.15B25,2013-07-31 09:11:00,
2013-07-31 05:16:00,64.4,62.9,30.11,ESE,113,0.0,3.0,95,0.07,,,0.05,0,WeatherCatV1.15B25,2013-07-31 09:16:00,
2013-07-31 05:21:00,64.4,62.9,30.11,SE,125,1.0,4.0,95,0.07,,,0.05,0,WeatherCatV1.15B25,2013-07-31 09:21:00,
2013-07-31 05:26:00,64.4,63.2,30.11,ESE,107,6.0,6.0,96,0.05,,,0.05,0,WeatherCatV1.15B25,2013-07-31 09:26:00,
2013-07-31 05:31:00,64.3,63.1,30.10,ESE,118,2.0,6.0,96,0.00,,,0.05,0,WeatherCatV1.15B25,2013-07-31 09:31:00,
2013-07-31 05:36:00,64.3,63.1,30.11,SE,133,6.0,6.0,96,0.00,,,0.06,0,WeatherCatV1.15B25,2013-07-31 09:36:00,
2013-07-31 05:41:00,64.2,63.0,30.10,South,180,0.0,4.0,96,0.00,,,0.06,0,WeatherCatV1.15B25,2013-07-31 09:41:00,
2013-07-31 05:46:00,64.2,63.0,30.10,ESE,117,5.0,8.0,96,0.00,,,0.06,0,WeatherCatV1.15B25,2013-07-31 09:46:00,
2013-07-31 05:51:00,64.2,63.0,30.10,SE,128,2.0,7.0,96,0.05,,,0.07,0,WeatherCatV1.15B25,2013-07-31 09:51:00,
2013-07-31 05:56:00,64.2,63.0,30.10,SE,135,1.0,2.0,96,0.05,,,0.07,0,WeatherCatV1.15B25,2013-07-31 09:56:00,
2013-07-31 06:01:00,64.2,63.0,30.10,South,174,0.0,2.0,96,0.04,,,0.07,0,WeatherCatV1.15B25,2013-07-31 10:01:00,
2013-07-31 06:06:00,64.2,63.0,30.10,SE,126,1.0,4.0,96,0.00,,,0.07,0,WeatherCatV1.15B25,2013-07-31 10:06:00,
2013-07-31 06:11:00,64.2,63.0,30.10,SE,140,4.0,4.0,96,0.00,,,0.07,0,WeatherCatV1.15B25,2013-07-31 10:11:00,
2013-07-31 06:16:00,64.2,63.0,30.10,South,176,0.0,3.0,96,0.00,,,0.07,0,WeatherCatV1.15B25,2013-07-31 10:16:00,
2013-07-31 06:21:00,64.2,63.0,30.10,ESE,114,1.0,5.0,96,0.00,,,0.07,0,WeatherCatV1.15B25,2013-07-31 10:21:00,
2013-07-31 06:26:00,64.2,63.3,30.10,SSE,159,0.0,4.0,97,0.00,,,0.07,0,WeatherCatV1.15B25,2013-07-31 10:26:00,
2013-07-31 06:31:00,64.2,63.3,30.10,East,100,1.0,2.0,97,0.00,,,0.07,0,WeatherCatV1.15B25,2013-07-31 10:31:00,
2013-07-31 06:36:00,64.2,63.3,30.10,South,182,3.0,5.0,97,0.00,,,0.07,0,WeatherCatV1.15B25,2013-07-31 10:36:00,
2013-07-31 06:41:00,64.1,63.2,30.10,SSW,194,2.0,6.0,97,0.00,,,0.07,0,WeatherCatV1.15B25,2013-07-31 10:41:00,
2013-07-31 06:46:00,64.1,63.2,30.10,SSW,193,1.0,5.0,97,0.00,,,0.07,0,WeatherCatV1.15B25,2013-07-31 10:46:00,
2013-07-31 06:51:00,64.1,63.2,30.10,SE,129,2.0,10.0,97,0.00,,,0.07,0,WeatherCatV1.15B25,2013-07-31 10:51:00,
2013-07-31 06:56:00,64.1,63.2,30.10,South,181,2.0,5.0,97,0.00,,,0.07,0,WeatherCatV1.15B25,2013-07-31 10:56:00,
2013-07-31 07:01:00,64.1,62.9,30.10,SSE,165,1.0,4.0,96,0.00,,,0.07,0,WeatherCatV1.15B25,2013-07-31 11:01:00,
2013-07-31 07:06:00,64.1,62.9,30.10,South,186,2.0,4.0,96,0.00,,,0.07,0,WeatherCatV1.15B25,2013-07-31 11:06:00,
2013-07-31 07:11:00,64.0,62.8,30.10,South,173,3.0,6.0,96,0.00,,,0.07,0,WeatherCatV1.15B25,2013-07-31 11:11:00,
2013-07-31 07:16:00,64.0,62.8,30.10,SSE,161,2.0,6.0,96,0.00,,,0.07,5,WeatherCatV1.15B25,2013-07-31 11:16:00,
2013-07-31 07:21:00,64.0,62.8,30.10,SSE,165,2.0,4.0,96,0.00,,,0.07,7,WeatherCatV1.15B25,2013-07-31 11:21:00,
2013-07-31 07:26:00,63.9,62.7,30.10,South,173,2.0,4.0,96,0.00,,,0.07,7,WeatherCatV1.15B25,2013-07-31 11:26:00,
2013-07-31 07:31:00,63.9,62.7,30.10,South,169,0.0,3.0,96,0.00,,,0.07,9,WeatherCatV1.15B25,2013-07-31 11:31:00,
2013-07-31 07:36:00,63.9,62.7,30.10,SSW,196,1.0,4.0,96,0.00,,,0.07,18,WeatherCatV1.15B25,2013-07-31 11:36:00,
2013-07-31 07:41:00,63.9,62.7,30.11,South,180,3.0,6.0,96,0.00,,,0.07,18,WeatherCatV1.15B25,2013-07-31 11:41:00,
2013-07-31 07:46:00,63.9,62.7,30.10,SE,144,1.0,7.0,96,0.00,,,0.07,21,WeatherCatV1.15B25,2013-07-31 11:46:00,
2013-07-31 07:51:00,63.9,62.7,30.10,SSE,155,0.0,6.0,96,0.00,,,0.07,23,WeatherCatV1.15B25,2013-07-31 11:51:00,
2013-07-31 07:56:00,63.9,62.7,30.10,SE,127,1.0,6.0,96,0.00,,,0.07,26,WeatherCatV1.15B25,2013-07-31 11:56:00,
2013-07-31 08:01:00,63.9,62.7,30.10,SSE,150,1.0,6.0,96,0.00,,,0.07,25,WeatherCatV1.15B25,2013-07-31 12:01:00,
2013-07-31 08:06:00,64.0,62.8,30.10,ESE,115,1.0,4.0,96,0.00,,,0.07,18,WeatherCatV1.15B25,2013-07-31 12:06:00,
2013-07-31 08:11:00,64.0,62.8,30.10,SE,127,0.0,4.0,96,0.00,,,0.07,19,WeatherCatV1.15B25,2013-07-31 12:11:00,
2013-07-31 08:16:00,64.0,62.8,30.10,East,80,1.0,4.0,96,0.00,,,0.07,33,WeatherCatV1.15B25,2013-07-31 12:16:00,
2013-07-31 08:21:00,64.0,62.8,30.10,South,169,0.0,6.0,96,0.00,,,0.07,28,WeatherCatV1.15B25,2013-07-31 12:21:00,
2013-07-31 08:26:00,63.9,63.0,30.10,SSW,199,1.0,4.0,97,0.00,,,0.07,51,WeatherCatV1.15B25,2013-07-31 12:26:00,
2013-07-31 08:31:00,63.9,62.7,30.10,SE,144,4.0,7.0,96,0.00,,,0.07,77,WeatherCatV1.15B25,2013-07-31 12:31:00,
2013-07-31 08:36:00,63.9,62.7,30.10,SSE,152,2.0,4.0,96,0.00,,,0.07,93,WeatherCatV1.15B25,2013-07-31 12:36:00,
2013-07-31 08:41:00,64.0,62.8,30.09,SE,140,2.0,4.0,96,0.00,,,0.07,114,WeatherCatV1.15B25,2013-07-31 12:41:00,
2013-07-31 08:46:00,64.2,63.3,30.09,South,183,3.0,5.0,97,0.00,,,0.07,116,WeatherCatV1.15B25,2013-07-31 12:46:00,
2013-07-31 08:51:00,64.3,63.1,30.09,South,183,0.0,5.0,96,0.00,,,0.07,128,WeatherCatV1.15B25,2013-07-31 12:51:00,
2013-07-31 08:56:00,64.4,63.2,30.09,SE,138,2.0,5.0,96,0.00,,,0.07,128,WeatherCatV1.15B25,2013-07-31 12:56:00,
2013-07-31 09:01:00,64.5,63.3,30.09,ESE,109,5.0,6.0,96,0.00,,,0.07,151,WeatherCatV1.15B25,2013-07-31 13:01:00,
2013-07-31 09:06:00,64.6,63.4,30.09,SSE,154,0.0,5.0,96,0.00,,,0.07,183,WeatherCatV1.15B25,2013-07-31 13:06:00,
2013-07-31 09:11:00,64.9,63.7,30.09,SE,129,1.0,2.0,96,0.00,,,0.07,199,WeatherCatV1.15B25,2013-07-31 13:11:00,
2013-07-31 09:16:00,65.1,63.9,30.09,SSE,154,4.0,4.0,96,0.00,,,0.07,193,WeatherCatV1.15B25,2013-07-31 13:16:00,
2013-07-31 09:21:00,65.2,63.7,30.09,SSE,167,0.0,2.0,95,0.00,,,0.07,176,WeatherCatV1.15B25,2013-07-31 13:21:00,
2013-07-31 09:26:00,65.3,63.8,30.09,SE,146,2.0,2.0,95,0.00,,,0.07,167,WeatherCatV1.15B25,2013-07-31 13:26:00,
2013-07-31 09:31:00,65.5,64.0,30.09,East,81,2.0,8.0,95,0.00,,,0.07,195,WeatherCatV1.15B25,2013-07-31 13:31:00,
2013-07-31 09:36:00,65.6,63.8,30.09,SE,136,1.0,6.0,94,0.00,,,0.07,174,WeatherCatV1.15B25,2013-07-31 13:36:00,
2013-07-31 09:41:00,65.7,63.9,30.09,East,96,5.0,6.0,94,0.00,,,0.07,308,WeatherCatV1.15B25,2013-07-31 13:41:00,
2013-07-31 09:46:00,65.9,63.8,30.09,ESE,121,5.0,6.0,93,0.00,,,0.07,274,WeatherCatV1.15B25,2013-07-31 13:46:00,
2013-07-31 09:51:00,66.1,64.0,30.09,SSE,154,0.0,6.0,93,0.00,,,0.07,232,WeatherCatV1.15B25,2013-07-31 13:51:00,
2013-07-31 09:56:00,66.4,64.3,30.09,SE,138,6.0,6.0,93,0.00,,,0.07,192,WeatherCatV1.15B25,2013-07-31 13:56:00,
2013-07-31 10:01:00,66.5,64.1,30.08,ESE,114,4.0,9.0,92,0.00,,,0.07,171,WeatherCatV1.15B25,2013-07-31 14:01:00,
2013-07-31 10:06:00,66.5,64.1,30.09,South,191,4.0,4.0,92,0.00,,,0.07,135,WeatherCatV1.15B25,2013-07-31 14:06:00,
2013-07-31 10:11:00,66.6,64.2,30.09,SE,140,0.0,6.0,92,0.00,,,0.07,121,WeatherCatV1.15B25,2013-07-31 14:11:00,
2013-07-31 10:16:00,66.6,63.9,30.09,South,179,0.0,3.0,91,0.00,,,0.07,121,WeatherCatV1.15B25,2013-07-31 14:16:00,
2013-07-31 10:21:00,66.7,64.3,30.09,SE,137,0.0,4.0,92,0.00,,,0.07,199,WeatherCatV1.15B25,2013-07-31 14:21:00,
2013-07-31 10:26:00,66.8,64.1,30.09,ESE,120,4.0,4.0,91,0.00,,,0.07,206,WeatherCatV1.15B25,2013-07-31 14:26:00,
2013-07-31 10:31:00,66.9,64.2,30.09,ESE,111,1.0,4.0,91,0.00,,,0.07,193,WeatherCatV1.15B25,2013-07-31 14:31:00,
2013-07-31 10:36:00,67.1,64.1,30.09,SSW,201,2.0,6.0,90,0.00,,,0.07,178,WeatherCatV1.15B25,2013-07-31 14:36:00,
2013-07-31 10:41:00,67.2,64.2,30.09,South,169,1.0,2.0,90,0.00,,,0.07,179,WeatherCatV1.15B25,2013-07-31 14:41:00,
2013-07-31 10:46:00,67.3,64.3,30.09,South,177,3.0,7.0,90,0.00,,,0.07,294,WeatherCatV1.15B25,2013-07-31 14:46:00,
2013-07-31 10:51:00,67.5,64.5,30.08,South,182,2.0,7.0,90,0.00,,,0.07,388,WeatherCatV1.15B25,2013-07-31 14:51:00,
2013-07-31 10:56:00,67.9,64.9,30.08,South,170,2.0,5.0,90,0.00,,,0.07,366,WeatherCatV1.15B25,2013-07-31 14:56:00,
2013-07-31 11:01:00,68.1,64.4,30.08,SSE,149,2.0,5.0,88,0.00,,,0.07,332,WeatherCatV1.15B25,2013-07-31 15:01:00,
2013-07-31 11:06:00,68.4,64.7,30.08,South,173,0.0,5.0,88,0.00,,,0.07,325,WeatherCatV1.15B25,2013-07-31 15:06:00,
2013-07-31 11:11:00,68.7,64.7,30.08,SE,133,0.0,5.0,87,0.00,,,0.07,237,WeatherCatV1.15B25,2013-07-31 15:11:00,
2013-07-31 11:16:00,68.7,64.7,30.08,SSE,154,5.0,5.0,87,0.00,,,0.07,193,WeatherCatV1.15B25,2013-07-31 15:16:00,
2013-07-31 11:21:00,68.7,64.7,30.08,SSE,155,0.0,4.0,87,0.00,,,0.07,230,WeatherCatV1.15B25,2013-07-31 15:21:00,
2013-07-31 11:26:00,68.8,64.8,30.08,South,182,1.0,4.0,87,0.00,,,0.07,234,WeatherCatV1.15B25,2013-07-31 15:26:00,
2013-07-31 11:31:00,69.0,65.0,30.08,SE,125,4.0,6.0,87,0.00,,,0.07,492,WeatherCatV1.15B25,2013-07-31 15:31:00,
2013-07-31 11:36:00,69.5,65.1,30.08,SE,140,6.0,7.0,86,0.00,,,0.07,371,WeatherCatV1.15B25,2013-07-31 15:36:00,
2013-07-31 11:41:00,69.7,65.0,30.07,SE,142,5.0,6.0,85,0.00,,,0.07,301,WeatherCatV1.15B25,2013-07-31 15:41:00,
2013-07-31 11:46:00,69.7,65.0,30.07,SSE,160,2.0,5.0,85,0.00,,,0.07,285,WeatherCatV1.15B25,2013-07-31 15:46:00,
2013-07-31 11:51:00,69.7,65.0,30.07,South,173,1.0,6.0,85,0.00,,,0.07,279,WeatherCatV1.15B25,2013-07-31 15:51:00,
2013-07-31 11:56:00,69.7,64.6,30.07,SSE,159,2.0,6.0,84,0.00,,,0.07,257,WeatherCatV1.15B25,2013-07-31 15:56:00,
2013-07-31 12:01:00,69.7,65.0,30.07,SE,146,2.0,5.0,85,0.00,,,0.07,234,WeatherCatV1.15B25,2013-07-31 16:01:00,
2013-07-31 12:06:00,69.8,65.1,30.07,SSW,196,1.0,5.0,85,0.00,,,0.07,213,WeatherCatV1.15B25,2013-07-31 16:06:00,
2013-07-31 12:11:00,69.9,64.8,30.07,South,187,1.0,7.0,84,0.00,,,0.07,211,WeatherCatV1.15B25,2013-07-31 16:11:00,
2013-07-31 12:16:00,69.7,64.6,30.07,South,169,2.0,6.0,84,0.00,,,0.07,216,WeatherCatV1.15B25,2013-07-31 16:16:00,
2013-07-31 12:21:00,69.7,65.0,30.07,SSE,161,1.0,6.0,85,0.00,,,0.07,130,WeatherCatV1.15B25,2013-07-31 16:21:00,
2013-07-31 12:26:00,69.6,64.9,30.06,SE,127,0.0,6.0,85,0.00,,,0.07,158,WeatherCatV1.15B25,2013-07-31 16:26:00,
2013-07-31 12:31:00,69.7,65.3,30.06,SSE,166,2.0,5.0,86,0.00,,,0.07,234,WeatherCatV1.15B25,2013-07-31 16:31:00,
2013-07-31 12:36:00,69.8,65.1,30.06,SE,145,0.0,7.0,85,0.00,,,0.07,292,WeatherCatV1.15B25,2013-07-31 16:36:00,
2013-07-31 12:41:00,69.9,65.2,30.06,South,183,2.0,3.0,85,0.00,,,0.07,287,WeatherCatV1.15B25,2013-07-31 16:41:00,
2013-07-31 12:46:00,70.1,65.0,30.06,SSE,165,3.0,4.0,84,0.00,,,0.07,260,WeatherCatV1.15B25,2013-07-31 16:46:00,
2013-07-31 12:51:00,70.1,64.7,30.06,SSW,196,1.0,6.0,83,0.00,,,0.07,223,WeatherCatV1.15B25,2013-07-31 16:51:00,
2013-07-31 12:56:00,70.3,64.9,30.05,South,171,2.0,6.0,83,0.00,,,0.07,253,WeatherCatV1.15B25,2013-07-31 16:56:00,
2013-07-31 13:01:00,70.4,65.3,30.05,SSE,167,1.0,4.0,84,0.00,,,0.07,269,WeatherCatV1.15B25,2013-07-31 17:01:00,
2013-07-31 13:06:00,70.7,65.3,30.05,SSE,165,0.0,0.0,83,0.00,,,0.07,295,WeatherCatV1.15B25,2013-07-31 17:06:00,
2013-07-31 13:11:00,70.8,65.4,30.05,SSE,165,2.0,3.0,83,0.00,,,0.07,301,WeatherCatV1.15B25,2013-07-31 17:11:00,
2013-07-31 13:16:00,71.1,66.0,30.05,SSE,165,0.0,3.0,84,0.00,,,0.07,323,WeatherCatV1.15B25,2013-07-31 17:16:00,
2013-07-31 13:21:00,71.4,66.0,30.05,SSE,165,1.0,2.0,83,0.00,,,0.07,316,WeatherCatV1.15B25,2013-07-31 17:21:00,
2013-07-31 13:26:00,71.7,66.2,30.05,West,280,2.0,2.0,83,0.00,,,0.07,332,WeatherCatV1.15B25,2013-07-31 17:26:00,
2013-07-31 13:31:00,72.2,66.4,30.05,West,275,0.0,1.0,82,0.00,,,0.07,454,WeatherCatV1.15B25,2013-07-31 17:31:00,
2013-07-31 13:36:00,72.8,66.3,30.05,SSE,153,0.0,3.0,80,0.00,,,0.07,403,WeatherCatV1.15B25,2013-07-31 17:36:00,
2013-07-31 13:41:00,73.0,66.1,30.04,SE,131,0.0,2.0,79,0.00,,,0.07,439,WeatherCatV1.15B25,2013-07-31 17:41:00,
2013-07-31 13:46:00,73.2,65.9,30.05,ESE,118,2.0,4.0,78,0.00,,,0.07,1028,WeatherCatV1.15B25,2013-07-31 17:46:00,
2013-07-31 13:51:00,73.3,66.0,30.05,SSW,206,5.0,5.0,78,0.00,,,0.08,348,WeatherCatV1.15B25,2013-07-31 17:51:00,
2013-07-31 13:56:00,73.3,66.0,30.04,SSE,160,0.0,2.0,78,0.00,,,0.08,267,WeatherCatV1.15B25,2013-07-31 17:56:00,
2013-07-31 14:01:00,73.3,66.0,30.04,South,183,1.0,4.0,78,0.00,,,0.08,281,WeatherCatV1.15B25,2013-07-31 18:01:00,
2013-07-31 14:06:00,73.4,66.1,30.04,SSE,167,2.0,2.0,78,0.00,,,0.08,274,WeatherCatV1.15B25,2013-07-31 18:06:00,
2013-07-31 14:11:00,73.5,66.9,30.04,SSE,167,1.0,1.0,80,0.00,,,0.08,323,WeatherCatV1.15B25,2013-07-31 18:11:00,
2013-07-31 14:16:00,73.6,66.3,30.04,SSE,158,2.0,7.0,78,0.00,,,0.08,272,WeatherCatV1.15B25,2013-07-31 18:16:00,
2013-07-31 14:21:00,73.6,66.3,30.03,South,169,0.0,1.0,78,0.00,,,0.08,318,WeatherCatV1.15B25,2013-07-31 18:21:00,
2013-07-31 14:26:00,73.9,67.0,30.03,SE,130,0.0,2.0,79,0.00,,,0.08,294,WeatherCatV1.15B25,2013-07-31 18:26:00,
2013-07-31 14:31:00,73.9,66.6,30.04,SW,234,0.0,3.0,78,0.00,,,0.08,220,WeatherCatV1.15B25,2013-07-31 18:31:00,
2013-07-31 14:36:00,73.8,65.7,30.03,South,174,1.0,3.0,76,0.00,,,0.08,232,WeatherCatV1.15B25,2013-07-31 18:36:00,
2013-07-31 14:41:00,73.7,65.7,30.03,South,174,1.0,2.0,76,0.00,,,0.08,274,WeatherCatV1.15B25,2013-07-31 18:41:00,
2013-07-31 14:46:00,73.8,66.1,30.03,South,174,1.0,1.0,77,0.00,,,0.08,267,WeatherCatV1.15B25,2013-07-31 18:46:00,
2013-07-31 14:51:00,73.8,66.1,30.03,SSE,163,1.0,4.0,77,0.00,,,0.08,237,WeatherCatV1.15B25,2013-07-31 18:51:00,
2013-07-31 14:56:00,73.7,66.0,30.03,SE,125,1.0,4.0,77,0.00,,,0.08,220,WeatherCatV1.15B25,2013-07-31 18:56:00,
2013-07-31 15:01:00,73.6,66.3,30.03,SE,142,4.0,5.0,78,0.00,,,0.08,281,WeatherCatV1.15B25,2013-07-31 19:01:00,
2013-07-31 15:06:00,73.5,66.2,30.03,SSE,158,4.0,5.0,78,0.00,,,0.08,214,WeatherCatV1.15B25,2013-07-31 19:06:00,
2013-07-31 15:11:00,73.3,66.4,30.03,South,173,0.0,3.0,79,0.00,,,0.08,118,WeatherCatV1.15B25,2013-07-31 19:11:00,
2013-07-31 15:16:00,73.1,66.2,30.03,SSE,149,2.0,4.0,79,0.00,,,0.08,93,WeatherCatV1.15B25,2013-07-31 19:16:00,
2013-07-31 15:22:00,72.9,66.4,30.03,SSE,160,0.0,0.0,80,0.00,,,0.08,111,WeatherCatV1.15B25,2013-07-31 19:22:00,
2013-07-31 15:27:00,72.9,66.7,30.03,ENE,71,2.0,4.0,81,0.00,,,0.08,128,WeatherCatV1.15B25,2013-07-31 19:27:00,
2013-07-31 15:32:00,72.8,66.3,30.03,SSE,154,2.0,5.0,80,0.00,,,0.08,186,WeatherCatV1.15B25,2013-07-31 19:32:00,
2013-07-31 15:37:00,72.8,66.6,30.03,East,98,1.0,4.0,81,0.00,,,0.08,186,WeatherCatV1.15B25,2013-07-31 19:37:00,
2013-07-31 15:42:00,72.8,66.3,30.02,SE,142,0.0,1.0,80,0.00,,,0.08,155,WeatherCatV1.15B25,2013-07-31 19:42:00,
2013-07-31 15:47:00,73.1,66.9,30.02,ENE,78,0.0,2.0,81,0.00,,,0.08,111,WeatherCatV1.15B25,2013-07-31 19:47:00,
2013-07-31 15:52:00,73.2,66.6,30.02,SE,132,1.0,4.0,80,0.00,,,0.08,120,WeatherCatV1.15B25,2013-07-31 19:52:00,
2013-07-31 15:57:00,73.1,66.2,30.02,ESE,113,1.0,2.0,79,0.00,,,0.08,227,WeatherCatV1.15B25,2013-07-31 19:57:00,
2013-07-31 16:02:00,73.2,66.6,30.02,SE,133,0.0,0.0,80,0.00,,,0.08,285,WeatherCatV1.15B25,2013-07-31 20:02:00,
2013-07-31 16:07:00,73.4,67.2,30.02,ENE,67,2.0,4.0,81,0.00,,,0.08,225,WeatherCatV1.15B25,2013-07-31 20:07:00,
2013-07-31 16:12:00,73.5,67.3,30.02,NE,53,0.0,3.0,81,0.00,,,0.08,206,WeatherCatV1.15B25,2013-07-31 20:12:00,
2013-07-31 16:17:00,73.7,67.1,30.01,NE,54,2.0,3.0,80,0.00,,,0.08,251,WeatherCatV1.15B25,2013-07-31 20:17:00,
2013-07-31 16:22:00,73.8,67.2,30.01,East,91,2.0,6.0,80,0.00,,,0.08,334,WeatherCatV1.15B25,2013-07-31 20:22:00,
2013-07-31 16:27:00,73.9,68.0,30.01,East,93,1.0,2.0,82,0.00,,,0.08,294,WeatherCatV1.15B25,2013-07-31 20:27:00,
2013-07-31 16:32:00,73.9,67.3,30.01,East,92,1.0,5.0,80,0.00,,,0.08,243,WeatherCatV1.15B25,2013-07-31 20:32:00,
2013-07-31 16:37:00,73.9,67.3,30.01,ESE,111,4.0,4.0,80,0.00,,,0.08,174,WeatherCatV1.15B25,2013-07-31 20:37:00,
2013-07-31 16:42:00,73.9,67.3,30.01,SE,126,0.0,1.0,80,0.00,,,0.08,155,WeatherCatV1.15B25,2013-07-31 20:42:00,
2013-07-31 16:47:00,73.9,67.3,30.01,SE,125,1.0,1.0,80,0.00,,,0.08,144,WeatherCatV1.15B25,2013-07-31 20:47:00,
2013-07-31 16:52:00,74.0,67.4,30.01,NE,53,0.0,1.0,80,0.00,,,0.08,174,WeatherCatV1.15B25,2013-07-31 20:52:00,
2013-07-31 16:57:00,74.2,67.6,30.00,East,100,1.0,2.0,80,0.00,,,0.08,174,WeatherCatV1.15B25,2013-07-31 20:57:00,
2013-07-31 17:02:00,74.3,67.7,30.00,East,96,1.0,2.0,80,0.00,,,0.08,234,WeatherCatV1.15B25,2013-07-31 21:02:00,
2013-07-31 17:07:00,74.4,67.8,30.00,ESE,122,0.0,2.0,80,0.00,,,0.08,385,WeatherCatV1.15B25,2013-07-31 21:07:00,
2013-07-31 17:12:00,74.8,68.6,30.00,ENE,57,1.0,2.0,81,0.00,,,0.08,427,WeatherCatV1.15B25,2013-07-31 21:12:00,
2013-07-31 17:17:00,75.4,68.0,30.00,NNE,28,2.0,3.0,78,0.00,,,0.08,239,WeatherCatV1.15B25,2013-07-31 21:17:00,
2013-07-31 17:22:00,75.7,68.0,30.00,NNE,28,0.0,0.0,77,0.00,,,0.08,237,WeatherCatV1.15B25,2013-07-31 21:22:00,
2013-07-31 17:27:00,75.9,68.2,29.99,East,96,1.0,4.0,77,0.00,,,0.08,243,WeatherCatV1.15B25,2013-07-31 21:27:00,
2013-07-31 17:32:00,76.0,68.3,29.99,East,96,1.0,2.0,77,0.00,,,0.08,343,WeatherCatV1.15B25,2013-07-31 21:32:00,
2013-07-31 17:37:00,76.1,68.3,29.99,ESE,117,1.0,2.0,77,0.00,,,0.08,155,WeatherCatV1.15B25,2013-07-31 21:37:00,
2013-07-31 17:42:00,75.9,67.8,29.99,ESE,117,1.0,2.0,76,0.00,,,0.08,246,WeatherCatV1.15B25,2013-07-31 21:42:00,
2013-07-31 17:47:00,76.0,67.9,29.99,SE,128,0.0,2.0,76,0.00,,,0.08,223,WeatherCatV1.15B25,2013-07-31 21:47:00,
2013-07-31 17:52:00,75.8,67.7,29.99,SE,130,1.0,4.0,76,0.00,,,0.08,185,WeatherCatV1.15B25,2013-07-31 21:52:00,
2013-07-31 17:57:00,75.6,67.5,29.99,SE,128,1.0,2.0,76,0.00,,,0.08,148,WeatherCatV1.15B25,2013-07-31 21:57:00,
2013-07-31 18:02:00,75.6,67.5,29.99,SE,128,0.0,2.0,76,0.00,,,0.08,181,WeatherCatV1.15B25,2013-07-31 22:02:00,
2013-07-31 18:07:00,75.6,67.9,29.99,SE,128,0.0,1.0,77,0.00,,,0.08,178,WeatherCatV1.15B25,2013-07-31 22:07:00,
2013-07-31 18:12:00,75.6,67.5,29.99,SE,128,0.0,0.0,76,0.00,,,0.08,137,WeatherCatV1.15B25,2013-07-31 22:12:00,
2013-07-31 18:17:00,75.6,67.9,29.98,SE,127,0.0,0.0,77,0.00,,,0.08,121,WeatherCatV1.15B25,2013-07-31 22:17:00,
2013-07-31 18:22:00,75.6,67.5,29.98,SE,127,0.0,0.0,76,0.00,,,0.08,120,WeatherCatV1.15B25,2013-07-31 22:22:00,
2013-07-31 18:27:00,75.6,67.5,29.98,SE,142,5.0,5.0,76,0.00,,,0.08,81,WeatherCatV1.15B25,2013-07-31 22:27:00,
2013-07-31 18:32:00,75.3,67.6,29.98,South,185,4.0,5.0,77,0.00,,,0.08,42,WeatherCatV1.15B25,2013-07-31 22:32:00,
2013-07-31 18:37:00,74.8,67.8,29.98,South,175,2.0,5.0,79,0.00,,,0.08,40,WeatherCatV1.15B25,2013-07-31 22:37:00,
2013-07-31 18:42:00,74.5,67.9,29.98,South,176,1.0,2.0,80,0.00,,,0.08,32,WeatherCatV1.15B25,2013-07-31 22:42:00,
2013-07-31 18:47:00,74.4,67.8,29.98,South,176,1.0,1.0,80,0.00,,,0.08,35,WeatherCatV1.15B25,2013-07-31 22:47:00,
2013-07-31 18:52:00,74.2,67.6,29.98,South,176,0.0,1.0,80,0.00,,,0.08,39,WeatherCatV1.15B25,2013-07-31 22:52:00,
2013-07-31 18:57:00,74.1,67.5,29.98,South,176,1.0,3.0,80,0.00,,,0.08,33,WeatherCatV1.15B25,2013-07-31 22:57:00,
2013-07-31 19:02:00,74.0,67.8,29.98,SSE,153,1.0,1.0,81,0.00,,,0.08,21,WeatherCatV1.15B25,2013-07-31 23:02:00,
2013-07-31 19:07:00,73.8,67.6,29.97,SE,145,0.0,2.0,81,0.00,,,0.08,26,WeatherCatV1.15B25,2013-07-31 23:07:00,
2013-07-31 19:12:00,73.7,67.5,29.97,South,181,0.0,1.0,81,0.00,,,0.08,30,WeatherCatV1.15B25,2013-07-31 23:12:00,
2013-07-31 19:17:00,73.7,67.5,29.97,South,181,2.0,3.0,81,0.00,,,0.08,30,WeatherCatV1.15B25,2013-07-31 23:17:00,
2013-07-31 19:22:00,73.6,67.4,29.97,East,91,1.0,2.0,81,0.00,,,0.08,44,WeatherCatV1.15B25,2013-07-31 23:22:00,
2013-07-31 19:27:00,73.6,67.8,29.97,ESE,108,0.0,2.0,82,0.00,,,0.08,47,WeatherCatV1.15B25,2013-07-31 23:27:00,
2013-07-31 19:32:00,73.5,67.7,29.97,East,100,2.0,4.0,82,0.00,,,0.08,42,WeatherCatV1.15B25,2013-07-31 23:32:00,
2013-07-31 19:37:00,73.5,67.7,29.97,SE,143,2.0,4.0,82,0.00,,,0.08,37,WeatherCatV1.15B25,2013-07-31 23:37:00,
2013-07-31 19:42:00,73.4,67.9,29.97,East,93,0.0,2.0,83,0.00,,,0.08,37,WeatherCatV1.15B25,2013-07-31 23:42:00,
2013-07-31 19:47:00,73.4,67.9,29.97,ESE,106,1.0,6.0,83,0.00,,,0.08,39,WeatherCatV1.15B25,2013-07-31 23:47:00,
2013-07-31 19:52:00,73.3,67.8,29.97,ESE,104,2.0,4.0,83,0.00,,,0.08,62,WeatherCatV1.15B25,2013-07-31 23:52:00,
2013-07-31 19:57:00,73.3,67.8,29.97,ESE,123,0.0,1.0,83,0.00,,,0.08,74,WeatherCatV1.15B25,2013-07-31 23:57:00,
2013-07-31 20:02:00,73.3,67.8,29.97,SE,125,1.0,1.0,83,0.00,,,0.08,56,WeatherCatV1.15B25,2013-08-01 00:02:00,
2013-07-31 20:07:00,73.3,67.8,29.97,SE,136,2.0,5.0,83,0.00,,,0.08,37,WeatherCatV1.15B25,2013-08-01 00:07:00,
2013-07-31 20:12:00,73.2,67.7,29.97,SE,140,0.0,4.0,83,0.00,,,0.08,30,WeatherCatV1.15B25,2013-08-01 00:12:00,
2013-07-31 20:17:00,73.2,67.7,29.97,NW,309,0.0,3.0,83,0.00,,,0.08,26,WeatherCatV1.15B25,2013-08-01 00:17:00,
2013-07-31 20:22:00,73.1,68.0,29.97,NW,309,0.0,1.0,84,0.00,,,0.08,21,WeatherCatV1.15B25,2013-08-01 00:22:00,
2013-07-31 20:27:00,73.0,67.9,29.97,SSE,161,2.0,2.0,84,0.00,,,0.08,9,WeatherCatV1.15B25,2013-08-01 00:27:00,
2013-07-31 20:32:00,73.0,67.9,29.97,SSE,161,1.0,1.0,84,0.00,,,0.08,7,WeatherCatV1.15B25,2013-08-01 00:32:00,
2013-07-31 20:37:00,73.0,68.2,29.97,South,171,0.0,1.0,85,0.00,,,0.08,5,WeatherCatV1.15B25,2013-08-01 00:37:00,
2013-07-31 20:42:00,72.9,68.1,29.97,South,172,0.0,1.0,85,0.00,,,0.08,0,WeatherCatV1.15B25,2013-08-01 00:42:00,
2013-07-31 20:47:00,72.9,68.1,29.98,South,172,0.0,0.0,85,0.00,,,0.08,0,WeatherCatV1.15B25,2013-08-01 00:47:00,
2013-07-31 20:52:00,72.8,67.7,29.98,South,172,1.0,1.0,84,0.00,,,0.08,0,WeatherCatV1.15B25,2013-08-01 00:52:00,
2013-07-31 20:57:00,72.7,67.6,29.98,South,172,0.0,1.0,84,0.00,,,0.08,0,WeatherCatV1.15B25,2013-08-01 00:57:00,
2013-07-31 21:02:00,72.6,67.1,29.98,South,174,0.0,3.0,83,0.00,,,0.08,0,WeatherCatV1.15B25,2013-08-01 01:02:00,
2013-07-31 21:07:00,72.6,67.1,29.98,South,174,0.0,1.0,83,0.00,,,0.08,0,WeatherCatV1.15B25,2013-08-01 01:07:00,
2013-07-31 21:12:00,72.6,67.1,29.97,South,174,0.0,1.0,83,0.00,,,0.08,0,WeatherCatV1.15B25,2013-08-01 01:12:00,
2013-07-31 21:17:00,72.6,67.1,29.97,South,185,1.0,3.0,83,0.00,,,0.08,0,WeatherCatV1.15B25,2013-08-01 01:17:00,
2013-07-31 21:22:00,72.5,67.0,29.98,South,180,3.0,3.0,83,0.00,,,0.08,0,WeatherCatV1.15B25,2013-08-01 01:22:00,
2013-07-31 21:27:00,72.5,67.0,29.98,South,180,3.0,3.0,83,0.00,,,0.08,0,WeatherCatV1.15B25,2013-08-01 01:27:00,
2013-07-31 21:32:00,72.5,67.0,29.98,South,180,0.0,0.0,83,0.00,,,0.08,0,WeatherCatV1.15B25,2013-08-01 01:32:00,
2013-07-31 21:37:00,72.5,67.4,29.98,South,180,1.0,2.0,84,0.00,,,0.08,0,WeatherCatV1.15B25,2013-08-01 01:37:00,
2013-07-31 21:42:00,72.4,67.3,29.98,South,180,0.0,5.0,84,0.00,,,0.08,0,WeatherCatV1.15B25,2013-08-01 01:42:00,
2013-07-31 21:47:00,72.3,67.5,29.98,South,179,0.0,3.0,85,0.00,,,0.08,0,WeatherCatV1.15B25,2013-08-01 01:47:00,
2013-07-31 21:52:00,72.3,67.5,29.98,South,179,0.0,3.0,85,0.00,,,0.08,0,WeatherCatV1.15B25,2013-08-01 01:52:00,
2013-07-31 21:57:00,72.3,67.5,29.98,South,179,0.0,3.0,85,0.00,,,0.08,0,WeatherCatV1.15B25,2013-08-01 01:57:00,
2013-07-31 22:02:00,72.2,67.4,29.98,South,182,0.0,5.0,85,0.00,,,0.08,0,WeatherCatV1.15B25,2013-08-01 02:02:00,
2013-07-31 22:07:00,72.2,67.8,29.98,South,179,0.0,3.0,86,0.00,,,0.08,0,WeatherCatV1.15B25,2013-08-01 02:07:00,
2013-07-31 22:12:00,72.1,67.7,29.98,South,171,1.0,4.0,86,0.00,,,0.08,0,WeatherCatV1.15B25,2013-08-01 02:12:00,
2013-07-31 22:17:00,72.1,67.7,29.98,South,171,1.0,1.0,86,0.00,,,0.08,0,WeatherCatV1.15B25,2013-08-01 02:17:00,
2013-07-31 22:22:00,72.0,67.6,29.99,South,171,0.0,1.0,86,0.00,,,0.08,0,WeatherCatV1.15B25,2013-08-01 02:22:00,
2013-07-31 22:27:00,72.1,67.7,29.99,South,171,0.0,1.0,86,0.00,,,0.08,0,WeatherCatV1.15B25,2013-08-01 02:27:00,
2013-07-31 22:32:00,72.0,67.6,29.98,South,171,0.0,2.0,86,0.00,,,0.08,0,WeatherCatV1.15B25,2013-08-01 02:32:00,
2013-07-31 22:37:00,72.0,67.6,29.99,South,171,0.0,1.0,86,0.00,,,0.08,0,WeatherCatV1.15B25,2013-08-01 02:37:00,
2013-07-31 22:42:00,71.9,67.5,29.99,South,171,1.0,3.0,86,0.00,,,0.08,0,WeatherCatV1.15B25,2013-08-01 02:42:00,
2013-07-31 22:47:00,71.9,67.5,29.98,South,171,2.0,2.0,86,0.00,,,0.08,0,WeatherCatV1.15B25,2013-08-01 02:47:00,
2013-07-31 22:52:00,71.9,67.8,29.98,South,173,3.0,3.0,87,0.00,,,0.08,0,WeatherCatV1.15B25,2013-08-01 02:52:00,
2013-07-31 22:57:00,71.9,67.5,29.98,South,190,0.0,2.0,86,0.00,,,0.08,0,WeatherCatV1.15B25,2013-08-01 02:57:00,
2013-07-31 23:02:00,71.8,67.4,29.98,South,179,1.0,4.0,86,0.00,,,0.08,0,WeatherCatV1.15B25,2013-08-01 03:02:00,
2013-07-31 23:07:00,71.8,67.4,29.98,South,179,0.0,2.0,86,0.00,,,0.08,0,WeatherCatV1.15B25,2013-08-01 03:07:00,
2013-07-31 23:12:00,71.7,67.3,29.98,South,179,1.0,1.0,86,0.00,,,0.08,0,WeatherCatV1.15B25,2013-08-01 03:12:00,
2013-07-31 23:17:00,71.7,67.3,29.99,South,179,0.0,2.0,86,0.00,,,0.08,0,WeatherCatV1.15B25,2013-08-01 03:17:00,
2013-07-31 23:22:00,71.6,67.2,29.99,WSW,237,1.0,4.0,86,0.00,,,0.08,0,WeatherCatV1.15B25,2013-08-01 03:22:00,
2013-07-31 23:27:00,71.6,67.2,29.99,WSW,237,0.0,2.0,86,0.00,,,0.08,0,WeatherCatV1.15B25,2013-08-01 03:27:00,
2013-07-31 23:32:00,71.5,67.4,29.99,WSW,237,2.0,2.0,87,0.00,,,0.08,0,WeatherCatV1.15B25,2013-08-01 03:32:00,
2013-07-31 23:37:00,71.5,67.4,29.99,WNW,286,0.0,0.0,87,0.00,,,0.08,0,WeatherCatV1.15B25,2013-08-01 03:37:00,
2013-07-31 23:42:00,71.5,67.4,29.99,WNW,286,0.0,1.0,87,0.00,,,0.08,0,WeatherCatV1.15B25,2013-08-01 03:42:00,
2013-07-31 23:47:00,71.4,67.3,29.99,WSW,238,0.0,1.0,87,0.00,,,0.08,0,WeatherCatV1.15B25,2013-08-01 03:47:00,
2013-07-31 23:52:00,71.4,67.3,29.99,WSW,238,0.0,2.0,87,0.00,,,0.08,0,WeatherCatV1.15B25,2013-08-01 03:52:00,
2013-07-31 23:57:00,71.3,67.6,29.99,WSW,238,0.0,1.0,88,0.00,,,0.08,0,WeatherCatV1.15B25,2013-08-01 03:57:00,